This is the latest recevied weather packets stored in our database for station/object OH6HPS. If no packets are shown the sender has not sent any weather packets the latest 10 day(s).
| Time | Temp. | Humidity | Pressure | Rain* | Wind** | Luminosity | Snow |
|---|---|---|---|---|---|---|---|
| 1777802773 | 15.56° C | 59% | 1008.1 hPa | 0 mm | - | 194 W/m² | - |
| 1777802173 | 15.56° C | 60% | 1008 hPa | 0 mm | - | 696 W/m² | - |
| 1777801573 | 15° C | 61% | 1007.9 hPa | 0 mm | - | 726 W/m² | - |
| 1777800972 | 15° C | 63% | 1007.8 hPa | 0 mm | - | 675 W/m² | - |
| 1777800371 | 14.44° C | 62% | 1007.9 hPa | 0 mm | - | 630 W/m² | - |
| 1777799773 | 14.44° C | 65% | 1007.9 hPa | 0 mm | - | 638 W/m² | - |
| 1777799172 | 14.44° C | 66% | 1007.8 hPa | 0 mm | - | 652 W/m² | - |
| 1777798571 | 14.44° C | 68% | 1007.8 hPa | 0 mm | - | 352 W/m² | - |
| 1777797972 | 14.44° C | 67% | 1007.8 hPa | 0 mm | - | 304 W/m² | - |
| 1777797370 | 13.89° C | 69% | 1007.8 hPa | 0 mm | - | 758 W/m² | - |
| 1777796775 | 13.89° C | 69% | 1007.6 hPa | 0 mm | - | - | - |
| 1777796357 | 13.89° C | 71% | 1007.6 hPa | 0 mm | - | 679 W/m² | - |
| 1777795756 | 13.33° C | 71% | 1007.5 hPa | 0 mm | - | 700 W/m² | - |
| 1777795465 | 13.33° C | 74% | 1007.4 hPa | 0 mm | - | 649 W/m² | - |
| 1777795381 | 12.22° C | 77% | 1007.3 hPa | 0 mm | - | 201 W/m² | - |
| 1777795326 | 12.78° C | 76% | 1007.2 hPa | 0 mm | - | 470 W/m² | - |
| 1777793357 | 11.67° C | 79% | 1007.1 hPa | 0 mm | - | 296 W/m² | - |
| 1777792756 | 11.67° C | 78% | 1007 hPa | 0 mm | - | 559 W/m² | - |
| 1777792155 | 11.11° C | 81% | 1007 hPa | 0 mm | - | 456 W/m² | - |
| 1777791555 | 10° C | 83% | 1006.9 hPa | 0 mm | - | 329 W/m² | - |
| 1777790955 | 9.44° C | 84% | 1006.8 hPa | 0 mm | - | 225 W/m² | - |
| 1777790354 | 9.44° C | 85% | 1006.8 hPa | 0 mm | - | 160 W/m² | - |
| 1777789754 | 8.89° C | 85% | 1006.6 hPa | 0 mm | - | 127 W/m² | - |
| 1777789153 | 8.89° C | 86% | 1006.4 hPa | 0 mm | - | 116 W/m² | - |
| 1777788554 | 8.33° C | 87% | 1006.5 hPa | 0 mm | - | 97 W/m² | - |
* Rain latest hour (hover to see other rain measurements)
** Current wind speed in m/s (hover to see current wind gust speed)